Geostationary
NORAD ID: 22175
Int'l Code: 1992-066A
Perigee: 35,922.8 km
Apogee: 35,970.0 km
Inclination: 10.0 °
Period: 1,443.9 minutes
Semi major axis: 42317 km
Launch date: October 12, 1992
Source: Greece (GREC)
Two Line Element Set (TLE):
1 22175U 92066A 13144.64694044 -.00000238 00000-0 00000+0 0 9713
2 22175 010.0383 048.8532 0005586 019.4264 340.4762 00.99729732 73019
Source:
NASA's NSSDC Master Catalog entry for HELLAS SAT 1 (DFS 3)